Chauncey, GA

4:41 PM EDT on August 28, 2016 (GMT -0400)
Heart Of Georgia Regional

Weather History for KEZM - February, 2013

Change the Weather History Date:

Wednesday, February 6, 2013

  Actual Average Record
Temperature  
Mean Temperature 58 °F -  
Max Temperature 76 °F 58 °F 76 °F (2013)
Min Temperature 42 °F 34 °F 26 °F (2015)
Degree Days  
Heating Degree Days 6    
Growing Degree Days 8 (Base 50)    
Moisture  
Dew Point 46 °F    
Average Humidity 71    
Maximum Humidity 97    
Minimum Humidity 31    
Precipitation  
Precipitation 0.00 in - - ()
Sea Level Pressure  
Sea Level Pressure 30.13 in    
Wind  
Wind Speed 1 mph (NE)    
Max Wind Speed 6 mph    
Max Gust Speed -    
Visibility 7 miles    
Events Fog    
Averages and records for this station are not official NWS values.
T = Trace of Precipitation, MM = Missing Value Source: NWS Daily Summary

Daily Weather History Graph

Daily Weather History Graph

Search for Another Location

Airport or City:

Trip Planner

Search our weather history database for the weather conditions in past years. The results will help you decide how hot, cold, wet, or windy it might be!

Date:

Astronomy

Feb. 06, 2013 Rise Set
Actual Time 7:22 AM EST 6:10 PM EST
Civil Twilight 6:57 AM EST 6:36 PM EST
Nautical Twilight 6:28 AM EST 7:05 PM EST
Astronomical Twilight 5:59 AM EST 7:34 PM EST
Moon 3:58 AM EST (2/6) 2:34 PM EST (2/6)
Length of Visible Light 11h 39m
Length of Day
10h 48m
Waning Crescent, 17% of the Moon is Illuminated
Feb 6
Waning Crescent
Feb 10
New
Feb 17
First Quarter
Feb 25
Full
Mar 4
Last Quarter

Hourly Weather History & Observations

Time (EST) Temp. Dew Point Humidity Pressure Visibility Wind Dir Wind Speed Gust Speed Precip Events Conditions
12:15 AM 49.5 °F 47.8 °F 94% 30.08 in 10.0 mi Calm Calm - N/A   Clear
12:35 AM 48.9 °F 47.5 °F 95% 30.08 in 1.8 mi Calm Calm - N/A   Mist
12:55 AM 48.9 °F 47.5 °F 95% 30.08 in 7.0 mi Calm Calm - N/A   Scattered Clouds
1:15 AM 48.9 °F 47.5 °F 95% 30.09 in 0.2 mi Calm Calm - N/A Fog Fog
1:35 AM 49.5 °F 48.2 °F 95% 30.08 in 0.2 mi Calm Calm - N/A Fog Fog
1:55 AM 46.9 °F 45.5 °F 95% 30.08 in 4.0 mi Calm Calm - N/A   Scattered Clouds
2:15 AM 46.6 °F 45.3 °F 95% 30.08 in 1.5 mi Calm Calm - N/A   Mist
2:35 AM 47.3 °F 46.0 °F 95% 30.08 in 2.5 mi Calm Calm - N/A   Clear
2:55 AM 46.0 °F 44.8 °F 95% 30.09 in 10.0 mi Calm Calm - N/A   Clear
3:15 AM 46.2 °F 45.0 °F 95% 30.09 in 0.2 mi Calm Calm - N/A Fog Fog
3:35 AM 45.9 °F 44.8 °F 96% 30.09 in 0.8 mi Calm Calm - N/A   Overcast
3:55 AM 45.7 °F 44.4 °F 95% 30.09 in 0.5 mi Calm Calm - N/A Fog Fog
4:15 AM 44.6 °F 43.3 °F 95% 30.10 in 0.2 mi Calm Calm - N/A Fog Fog
4:35 AM 43.3 °F 42.1 °F 95% 30.10 in 4.0 mi Calm Calm - N/A   Overcast
4:55 AM 45.5 °F 44.4 °F 96% 30.11 in 0.2 mi Calm Calm - N/A Fog Fog
5:55 AM 43.0 °F 41.9 °F 96% 30.12 in 0.5 mi Calm Calm - N/A Fog Fog
6:15 AM 42.4 °F 41.4 °F 96% 30.13 in 0.2 mi Calm Calm - N/A Fog Fog
6:35 AM 43.3 °F 42.3 °F 96% 30.14 in 1.0 mi Calm Calm - N/A   Overcast
6:55 AM 44.8 °F 43.7 °F 96% 30.14 in 4.0 mi Calm Calm - N/A   Overcast
7:15 AM 44.6 °F 43.7 °F 97% 30.15 in 4.0 mi Calm Calm - N/A   Overcast
7:35 AM 45.1 °F 44.1 °F 96% 30.15 in 0.2 mi Calm Calm - N/A Fog Fog
7:55 AM 45.0 °F 43.9 °F 96% 30.15 in 0.2 mi Calm Calm - N/A Fog Fog
8:35 AM 50.0 °F 48.9 °F 96% 30.17 in 0.2 mi Calm Calm - N/A Fog Fog
8:55 AM 52.7 °F 51.6 °F 96% 30.18 in 7.0 mi Calm Calm - N/A   Scattered Clouds
9:15 AM 55.8 °F 54.5 °F 96% 30.18 in 10.0 mi Calm Calm - N/A   Clear
9:35 AM 57.9 °F 54.5 °F 88% 30.19 in 10.0 mi North 4.6 mph - N/A   Clear
9:55 AM 60.4 °F 54.9 °F 82% 30.19 in 10.0 mi Calm Calm - N/A   Clear
10:15 AM 62.4 °F 54.3 °F 75% 30.19 in 10.0 mi NNE 3.5 mph - N/A   Clear
10:35 AM 66.0 °F 49.1 °F 54% 30.19 in 10.0 mi NE 4.6 mph - N/A   Clear
10:55 AM 68.2 °F 47.3 °F 47% 30.19 in 10.0 mi NE 5.8 mph - N/A   Clear
11:15 AM 68.4 °F 46.6 °F 46% 30.19 in 10.0 mi ENE 3.5 mph - N/A   Clear
11:35 AM 70.0 °F 46.0 °F 42% 30.19 in 10.0 mi East 4.6 mph - N/A   Clear
11:55 AM 70.9 °F 46.4 °F 42% 30.18 in 10.0 mi Calm Calm - N/A   Clear
12:15 PM 71.1 °F 45.0 °F 39% 30.18 in 10.0 mi Calm Calm - N/A   Clear
12:35 PM 71.6 °F 44.4 °F 38% 30.16 in 10.0 mi SE 3.5 mph - N/A   Clear
12:55 PM 71.6 °F 44.6 °F 38% 30.15 in 10.0 mi South 4.6 mph - N/A   Clear
1:15 PM 72.1 °F 44.6 °F 37% 30.15 in 10.0 mi Calm Calm - N/A   Clear
1:35 PM 73.2 °F 44.4 °F 36% 30.15 in 10.0 mi Calm Calm - N/A   Clear
1:55 PM 73.2 °F 44.4 °F 36% 30.14 in 10.0 mi NE 3.5 mph - N/A   Clear
2:15 PM 73.8 °F 44.6 °F 35% 30.13 in 10.0 mi NE 3.5 mph - N/A   Clear
2:35 PM 73.9 °F 44.6 °F 35% 30.13 in 10.0 mi North 3.5 mph - N/A   Clear
2:55 PM 74.7 °F 43.5 °F 33% 30.12 in 10.0 mi SW 3.5 mph - N/A   Clear
3:15 PM 74.7 °F 43.5 °F 33% 30.12 in 10.0 mi SW 3.5 mph - N/A   Clear
3:35 PM 74.7 °F 43.5 °F 33% 30.12 in 10.0 mi Calm Calm - N/A   Clear
3:55 PM 75.6 °F 43.2 °F 31% 30.12 in 10.0 mi Calm Calm - N/A   Clear
4:35 PM 74.7 °F 42.8 °F 32% 30.11 in 10.0 mi Calm Calm - N/A   Clear
4:55 PM 74.3 °F 42.6 °F 32% 30.10 in 10.0 mi Calm Calm - N/A   Clear
5:15 PM 73.6 °F 41.4 °F 31% 30.11 in 10.0 mi Calm Calm - N/A   Clear
5:35 PM 73.4 °F 42.1 °F 32% 30.11 in 10.0 mi Calm Calm - N/A   Clear
5:55 PM 71.4 °F 44.4 °F 38% 30.12 in 10.0 mi Calm Calm - N/A   Clear
6:15 PM 68.7 °F 46.0 °F 44% 30.12 in 10.0 mi Calm Calm - N/A   Clear
6:35 PM 64.8 °F 47.3 °F 53% 30.12 in 10.0 mi Calm Calm - N/A   Clear
6:55 PM 62.6 °F 48.2 °F 59% 30.12 in 10.0 mi Calm Calm - N/A   Clear
7:15 PM 61.7 °F 48.4 °F 62% 30.12 in 10.0 mi Calm Calm - N/A   Clear
7:35 PM 61.0 °F 48.2 °F 63% 30.11 in 10.0 mi Calm Calm - N/A   Clear
7:55 PM 54.9 °F 47.1 °F 75% 30.13 in 10.0 mi Calm Calm - N/A   Clear
8:15 PM 55.4 °F 48.6 °F 78% 30.13 in 7.0 mi Calm Calm - N/A   Clear
8:35 PM 55.6 °F 49.1 °F 79% 30.14 in 7.0 mi Calm Calm - N/A   Clear
8:55 PM 53.4 °F 48.0 °F 82% 30.15 in 7.0 mi Calm Calm - N/A   Clear
9:15 PM 52.0 °F 47.1 °F 83% 30.16 in 5.0 mi Calm Calm - N/A   Haze
9:35 PM 50.9 °F 46.9 °F 86% 30.16 in 5.0 mi Calm Calm - N/A   Clear
9:55 PM 51.6 °F 47.1 °F 85% 30.16 in 4.0 mi Calm Calm - N/A   Haze
10:15 PM 51.3 °F 46.8 °F 85% 30.16 in 7.0 mi Calm Calm - N/A   Scattered Clouds
10:35 PM 49.8 °F 46.4 °F 88% 30.15 in 5.0 mi Calm Calm - N/A   Scattered Clouds
10:55 PM 49.3 °F 46.4 °F 90% 30.15 in 5.0 mi Calm Calm - N/A   Clear
11:15 PM 50.2 °F 47.1 °F 89% 30.15 in 7.0 mi Calm Calm - N/A   Clear
11:35 PM 48.2 °F 46.0 °F 92% 30.14 in 5.0 mi Calm Calm - N/A   Clear
11:55 PM 48.2 °F 46.4 °F 93% 30.14 in 5.0 mi Calm Calm - N/A   Clear